Location: Newark
(27.9675°N, 86.8869°E)
Time: 07:15:03
(UTC+00:00)

Courier 1B Rocket - Pass Details

Date: 18 October 2019
Orbit: 920 x 1202 km, 28.2° (Epoch: 17 November)

Event Time Altitude Azimuth Distance (km) Brightness Sun altitude
Rises 03:37:04 0° 277° (W) 3,685 7.6 39.4°
Reaches altitude 10° 03:39:49 10° 270° (W) 2,774 7.1 39.8°
Maximum altitude 03:46:04 40° 203° (SSW) 1,494 6.7 40.8°
Drops below altitude 10° 03:52:46 10° 136° (SE) 2,966 8.7 41.9°
Sets 03:55:48 0° 129° (SE) 3,965 9.0 42.3°
